Regional Weather Roundup
Issued by NWS

Home | Current Version | Previous Version | Text Only | Print | Product List | Glossary On
Versions: 1 2 3 4 5 6 7 8 9 10 11 12 13 14 15 16 17 18 19 20 21 22 23 24 25 26 27 28 29 30 31 32 33 34 35 36 37 38 39 40 41 42 43 44 45 46 47 48 49 50
000
ASUS43 KMPX 261210
RWRMN
WEATHER ROUNDUP FOR MINNESOTA
NATIONAL WEATHER SERVICE TWIN CITIES/CHANHASSEN MN
700 AM CDT TUE SEP 26 2017


NOTE: "FAIR" INDICATES FEW OR NO CLOUDS BELOW 12,000 FEET WITH NO
SIGNIFICANT WEATHER AND/OR OBSTRUCTIONS TO VISIBILITY. N/A MEANS
CURRENT SKY AND/OR WEATHER CONDITIONS ARE NOT AVAILABLE.

MNZ060>063-068>070-261300-
   Twin Cities Metro

CITY           SKY/WX    TMP DP  RH WIND       PRES   REMARKS
TWIN CITIES    LGT RAIN  58  57  97 NW6       29.92S
6HR MIN TEMP:  58; 6HR MAX TEMP:  59; 6HR PCP:  0.11;

ST PAUL        LGT RAIN  58  58 100 NW8       29.92R
CRYSTAL        LGT RAIN  57  54  89 W3        29.91S
BLAINE         LGT RAIN  57  57 100 W3        29.91S
LAKEVILLE      LGT RAIN  55  55 100 NW5       29.92S
EDEN PRAIRIE   LGT RAIN  58  56  93 W6        29.92R
6HR MIN TEMP:  58; 6HR MAX TEMP:  58; 6HR PCP:  0.15;

SOUTH ST PAUL  LGT RAIN  59  58  97 NW5       29.92R
LAKE ELMO      RAIN      59  57  94 W7        29.92S
$$
MNZ001>005-007-008-013>017-022>024-027-028-261300-
   Northwest Minnesota

CITY           SKY/WX    TMP DP  RH WIND       PRES   REMARKS
BEMIDJI        DRIZZLE   48  48  99 N6        30.00R
HALLOCK        DRIZZLE   48  48 100 N8        30.06F
ROSEAU         LGT RAIN  48  45  87 N7        30.06S
WARROAD        CLOUDY    50  46  87 N8        30.06F
THIEF RVR FALL LGT RAIN  49  48  97 N8        30.05S
CROOKSTON      LGT RAIN  48  48 100 N6        30.04S
FOSSTON        DRIZZLE   46  46 100 N7        30.03R
DETROIT LAKES  DRIZZLE   50  48  93 N7        30.02R
MOORHEAD       RAIN      50  48  93 NW6       30.04R
PARK RAPIDS    CLOUDY    51  49  92 N9        29.98R
MAHNOMEN       DRIZZLE   49  48  97 N7        30.02R
$$
MNZ006-009>011-018-025>026-261300-
   North Central Minnesota

CITY           SKY/WX    TMP DP  RH WIND       PRES   REMARKS
BAUDETTE       RAIN      49  48  97 N8        30.05S
FLAG ISLAND    LGT RAIN  50  48  93 N8        30.06S
INTL FALLS     LGT RAIN  50  47  89 N5        30.02R
6HR MIN TEMP:  50; 6HR MAX TEMP:  52; 6HR PCP:  0.02;

WASKISH        RAIN      48  48 100 N7        30.02F
BIG FORK       RAIN      50  48  93 N8        29.99S
LONGVILLE      DRIZZLE   52  52 100 N6        29.96R
GRAND RAPIDS   LGT RAIN  51  50  96 N7        29.98S
CRANE LAKE     HVY RAIN  48  48 100 N3        30.01R
ORR            DRIZZLE   50  46  87 CALM      29.97R
WALKER         DRIZZLE   50  49  98 N7        29.98R
$$
MNZ012-019>021-037-261300-
   Northeast Minnesota

CITY           SKY/WX    TMP DP  RH WIND       PRES   REMARKS
DULUTH         LGT RAIN  53  53 100 E9        29.93R FOG
6HR MIN TEMP:  53; 6HR MAX TEMP:  56; 6HR PCP:  0.55;

ELY            RAIN      50  48  93 NE8       29.96S
HIBBING        HVY RAIN  50  50 100 N3        29.97R FOG
EVELETH        RAIN      53  51  95 NE5       29.98R
DULUTH HARBOR  RAIN      57  55  94 NE21      29.92
GRAND MARAIS     N/A     53  52  96 VRB6      29.94F
$$
MNZ029>031-032-039>041-046>048-054>057-064-261300-
   West Central Minnesota

CITY           SKY/WX    TMP DP  RH WIND       PRES   REMARKS
FERGUS FALLS   DRIZZLE   52  52 100 NW3       30.02S
WHEATON        LGT RAIN  50  48  93 NW7       30.04R
ALEXANDRIA     CLOUDY    52  51  97 N8        29.99S
ELBOW LAKE     CLOUDY    51  51 100 W7        30.01R
WADENA         CLOUDY    50  50 100 NW6       29.98S
GLENWOOD       LGT RAIN  52  52 100 NW8       29.98S
APPLETON       LGT RAIN  54  50  87 NW6       30.00R
BENSON         RAIN      52  52 100 N8        30.01R
ORTONVILLE     CLOUDY    52  48  87 NW8       30.02R
MADISON        CLOUDY    54  54 100 NW9       30.01S
WILLMAR        CLOUDY    54  54 100 NW8       29.99R
$$
MNZ033>034-036-042>043-049>051-058-059-261300-
   Central Minnesota

CITY           SKY/WX    TMP DP  RH WIND       PRES   REMARKS
ST CLOUD       CLOUDY    53  53 100 NW6       29.94R
6HR MIN TEMP:  54; 6HR MAX TEMP:  55; 6HR PCP:  0.18;

SAUK CENTRE    DRIZZLE   52  51  97 NW8       29.97S
PAYNESVILLE    CLOUDY    53  53  99 NW5       29.97R
AITKIN         DRIZZLE   52  50  93 N7        29.93S
PINE RIVER     DRIZZLE   50  48  93 N6        29.99S
BRAINERD       LGT RAIN  53  52  96 N8        29.95R
STAPLES        CLOUDY    50  50 100 N8        29.96S
LITTLE FALLS   LGT RAIN  52  50  93 N3        29.94S
LITCHFIELD     CLOUDY    55  55 100 NW5       29.96R
BUFFALO        CLOUDY    55  53  92 W5        29.95R
MAPLE LAKE     CLOUDY    56  55  98 NW6       29.95R
HUTCHINSON     RAIN      56  55  99 W5        29.96S
$$
MNZ037-044-045-052-053-261300-
   East Central Minnesota

CITY           SKY/WX    TMP DP  RH WIND       PRES   REMARKS
PRINCETON      RAIN      55  55 100 NW5       29.93S
MORA           LGT RAIN  52  50  93 NW5       29.94R
RUSH CITY      RAIN      56  55  96 CALM      29.91S
MOOSE LAKE     LGT RAIN  54  52  94 NE6       29.90R
HINCKLEY       DRIZZLE   55  55 100 CALM      29.92R
CLOQUET        LGT RAIN  54  52  94 E7        29.93R
MCGREGOR       CLOUDY    54  52  94 N5        29.94S
$$
MNZ071>073-080-081-089-090-097-098-261300-
   Southwest Minnesota

CITY           SKY/WX    TMP DP  RH WIND       PRES   REMARKS
MONTEVIDEO     RAIN      52  52 100 N8        30.00S
GRANITE FALLS  DRIZZLE   53  53  97 NW9       30.01R
CANBY          DRIZZLE   51  50  97 NW8       30.04R
MARSHALL       CLOUDY    51  50  96 NW10      30.01R
REDWOOD FALLS  CLOUDY    54  52  93 NW9       29.98R FOG
OLIVIA         CLOUDY    54  52  94 NW8       29.97R FOG
PIPESTONE      DRIZZLE   52  48  87 NW12      30.02R
JACKSON        CLOUDY    52  52 100 NW10      29.99R
TRACY          CLOUDY    52  52 100 NW8       30.01R FOG
SLAYTON        CLOUDY    50  43  77 NW8       30.01R
$$
MNZ065>067-074>077-082>085-091>093-261300-
   South Central Minnesota

CITY           SKY/WX    TMP DP  RH WIND       PRES   REMARKS
MANKATO        LGT RAIN  56  55  97 NW9       29.95R
NEW ULM        CLOUDY    55  54  94 NW6       29.96S
ST JAMES       DRIZZLE   54  54 100 NW6       29.97S
FAIRMONT       CLOUDY    55  54  94 NW7       29.97S
FARIBAULT      LGT RAIN  57  57 100 W6        29.93R
OWATONNA       RAIN      59  57  94 W7        29.93R
WASECA         RAIN      55  55 100 W10       29.95R
ALBERT LEA     HVY RAIN  63  61  94 W6        29.94R
$$
MNZ078>079-086>088-094>096-261300-
   Southeast Minnesota

CITY           SKY/WX    TMP DP  RH WIND       PRES   REMARKS
ROCHESTER      LGT RAIN  63  63 100 CALM      29.93R FOG
6HR MIN TEMP:  62; 6HR MAX TEMP:  63; 6HR PCP:  0.06;

RED WING       RAIN      61  59  94 CALM      29.90R
STANTON        RAIN      60  58  93 W7        29.91R
DODGE CENTER   DRZL/FOG  61  61 100 CALM      29.91S VSB 1
WINONA         DRIZZLE   66  64  94 SE6       29.90F
AUSTIN         LGT RAIN  63  63 100 CALM      29.93R
PRESTON        CLOUDY    63  61  96 CALM      29.91F FOG
$$
ABBREVIATIONS USED IN REMARKS
   TC - TEMPERATURES IN CELSIUS
  WCI - WIND CHILL INDEX
   HX - HEAT INDEX
  VSB - VISIBILITY
$$



USA.gov is the U.S. government's official web portal to all federal, state and local government web resources and services.